User: anonymous   Login
Location: Unspecified
(0.0000°N, 0.0000°E)
Time: 02:11:07
(UTC+00:00)
Language:

STARLINK-31419 - Orbit

View from above orbital plane
View from above orbital plane
View from above satellite
View from above satellite

Ground track
Ground track

The orbit is defined by the following mean orbital elements,

1 59368U          26145.58190583 +.00000000 +00000-0 +64051-4 0 00001
2 59368  43.0012 185.5091 0001396 271.1049  88.9642 15.27582577    01
Epoch (UTC): 25 May 2026 13:57:56
Eccentricity: 0.0001396
inclination: 43.0012°
perigee height: 482 km
apogee height: 484 km
right ascension of ascending node: 185.5091°
argument of perigee: 271.1049°
revolutions per day: 15.27582577
mean anomaly at epoch: 88.9642°

The dashed part of the orbit path shows where the satellite is in the earth's shadow,  

DLR